User: anonymous   Login
Location: Bittelbronn
(48.4454°N, 8.5870°E)
Time: 20:33:06
(UTC+00:00)
Language:

Meteor 1-12 Rocket - Orbit

View from above orbital plane
View from above orbital plane
View from above satellite
View from above satellite

Ground track
Ground track

The orbit data is extracted from the following two-line orbital elements,

1 06080U 72049B   24197.61030672  .00000138  00000-0  82946-4 0  9999
2 06080  81.2389  26.2838 0048251 220.9950 138.7585 14.01121542658943
Epoch (UTC): 15 July 2024 14:38:50
Eccentricity: 0.0048251
inclination: 81.2389°
perigee height: 855 km
apogee height: 925 km
right ascension of ascending node: 26.2838°
argument of perigee: 220.9950°
revolutions per day: 14.01121542
mean anomaly at epoch: 138.7585°
orbit number at epoch: 65894

The dashed part of the orbit path shows where the satellite is in the earth's shadow,  

DLR